Regional Weather Roundup
Issued by NWS

Home | Current Version | Previous Version | Text Only | Print | Product List | Glossary Off
Versions: 1 2 3 4 5 6 7 8 9 10 11 12 13 14 15 16 17 18 19 20 21 22 23 24 25 26 27 28 29 30 31 32 33 34 35 36 37 38 39 40 41 42 43 44 45 46 47 48 49 50

000
ASUS43 KLOT 201706
RWRIL

ILLINOIS REGIONAL WEATHER ROUNDUP
NATIONAL WEATHER SERVICE CHICAGO/ROMEOVILLE IL
1200 PM CDT SUN APR 20 2014

NOTE: "FAIR" INDICATES FEW OR NO CLOUDS BELOW 12,000 FEET WITH NO
SIGNIFICANT WEATHER AND/OR OBSTRUCTIONS TO VISIBILITY.

* THESE STATIONS ARE NOT UNDER NWS QUALITY CONTROL. THEY ALSO MAY NOT
  REPORT WEATHER SUCH AS PRECIPITATION OR FOG.

ILZ001-002-007-009-015-016-024-201800-
NORTHWEST ILLINOIS

CITY           SKY/WX    TMP DP  RH WIND       PRES   REMARKS
MOLINE         SUNNY     78  43  28 SW14      30.10F
STERLING*      SUNNY     75  45  33 SW10G16   30.13F
SAVANNA*       SUNNY     75  41  29 S10       30.12F
$$

ILZ003-004-008-010-011-017-018-201800-
NORTH CENTRAL ILLINOIS

CITY           SKY/WX    TMP DP  RH WIND       PRES   REMARKS
ROCKFORD       MOSUNNY   73  41  31 S13G21    30.15F
FREEPORT*      SUNNY     74  43  32 S16G22    30.15F
ROCHELLE*      SUNNY     74  39  28 SW16      30.15F
DE KALB*       SUNNY     70  40  33 S17G26    30.17F
$$

ILZ005-006-012>014-019>023-201800-
NORTHEAST ILLINOIS

CITY           SKY/WX    TMP DP  RH WIND       PRES   REMARKS
CHICAGO-OHARE  PTSUNNY   71  37  28 S13       30.17F
CHICAGO-MIDWAY PTSUNNY   70  38  31 S14       30.18F
AURORA         SUNNY     71  41  33 S13       30.17F
LANSING*       SUNNY     70  36  29 SW12      30.20F
WAUKEGAN       MOSUNNY   66  39  37 SE9       30.16F
DUPAGE AIRPORT SUNNY     71  39  31 SW15      30.17F
KANKAKEE*      SUNNY     73  41  31 S10G16    30.20F
WHEELING       SUNNY     70  37  29 S12       30.18F
MORRIS*        SUNNY     74  29  19 S16G24    30.16F
NORTHERLY ISL    N/A     68  34  28 S10         N/A
$$

LMZ740>746-201800-
SOUTHERN LAKE MICHIGAN

STATION/POSITION SKY/WX   TEMP    WIND        PRES    VSBY  WAVE
                          AIR SEA DIR/SP/G                  HT/PER
                          (F)     (DEG/KT/KT) (MB)    (MI)  (FT/S)
WAUKEGAN HARBOR            49     190/  7/  9 1023.0S
HARRISON CRIB              59     150/ 12/ 14   N/A
BURNHAM HARBOR             68     190/ 10/ 12   N/A
CALUMET HARBOR             66     190/  8/ 14 1023.1F
MICHIGAN CITY              65     180/ 12/ 15   N/A
$$

ILZ025>027-034>036-040-047-049-050-058-095>099-201800-
WEST-CENTRAL ILLINOIS

CITY           SKY/WX    TMP DP  RH WIND       PRES   REMARKS
QUINCY         SUNNY     76  49  38 SW14      30.13F
GALESBURG*     MOSUNNY   73  48  41 S10       30.14F
MACOMB*        MOSUNNY   75  45  33 SW7       30.16F
JACKSONVILLE*  SUNNY     77  43  29 S10G16    30.16F
PITTSFIELD*    SUNNY     76  46  33 SW9       30.16S
$$

ILZ028>032-037-038-041>044-048-051>054-059>061-201800-
CENTRAL ILLINOIS

CITY           SKY/WX    TMP DP  RH WIND       PRES   REMARKS
PONTIAC        MOSUNNY   75  39  27 SW13G18   30.18S
BLOOMINGTON    MOSUNNY   71  38  30 SW13      30.19F
DECATUR        SUNNY     74  41  30 SW13      30.19
PEORIA         PTSUNNY   73  43  33 S8        30.16F
LACON*         MOSUNNY   72  42  33 SW15G21   30.15F
LINCOLN*       MOSUNNY   77  40  26 S6        30.16F
SPRINGFIELD    SUNNY     76  41  28 S9        30.17F
TAYLORVILLE    SUNNY     72  43  35 S14G20    30.19F
$$

ILZ033-039-045-046-055>057-062-063-201800-
EAST-CENTRAL ILLINOIS

CITY           SKY/WX    TMP DP  RH WIND       PRES   REMARKS
CHAMPAIGN      MOSUNNY   75  37  25 S8        30.20F
RANTOUL*       MOSUNNY   73  34  23 S7        30.21F
MATTOON        SUNNY     70  44  39 S8        30.20F
PARIS*         SUNNY     72  39  30 SE5       30.22F
$$

ILZ079-100>102-201800-
SOUTHWEST ILLINOIS

CITY           SKY/WX    TMP DP  RH WIND       PRES   REMARKS
ALTON          SUNNY     73  39  29 S12       30.18F
BELLEVILLE     MOSUNNY   74  46  37 S6        30.18F
CAHOKIA*       SUNNY     75  43  31 S9        30.18F
SPARTA*        MOSUNNY   72  43  35 SW7       30.21F
$$

ILZ064>066-069>071-074>076-080>082-084>086-088>090-092>094-201800-
SOUTH-CENTRAL ILLINOIS

CITY           SKY/WX    TMP DP  RH WIND       PRES   REMARKS
CARBONDALE     PTSUNNY   72  43  35 S3        30.20F
CAIRO*         MOSUNNY   78  43  28 S3        30.21F
MARION         PTSUNNY   73  43  33 S9        30.22S
MT. VERNON     MOSUNNY  N/A N/A N/A SW9       30.22S
CENTRALIA*       N/A     71  42  36 CALM      30.21F
SALEM*         MOSUNNY   73  45  36 S8        30.21F
METROPOLIS*    MOSUNNY   75  34  22 S5        30.21S
$$

ILZ067-068-072-073-078-083-087-091-201800-
SOUTHEAST ILLINOIS

CITY           SKY/WX    TMP DP  RH WIND       PRES   REMARKS
FAIRFIELD*     MOSUNNY   73  46  38 S7        30.21F
HARRISBURG*    PTSUNNY   73  40  29 SE5       30.22F
ROBINSON*      SUNNY     73  42  32 SW5       30.23F
CARMI*         MOSUNNY   73  46  38 S7        30.22F
$$

ABBREVIATIONS USED IN REMARKS
   TC - TEMPERATURE IN CELSIUS
  WCI - WIND CHILL INDEX
   HX - HEAT INDEX
  VSB - VISIBILITY
$$




USA.gov is the U.S. government's official web portal to all federal, state and local government web resources and services.